Regional Weather Roundup
Issued by NWS

Home | Current Version | Previous Version | Text Only | Print | Product List | Glossary Off
Versions: 1 2 3 4 5 6 7 8 9 10 11 12 13 14 15 16 17 18 19 20 21 22 23 24 25 26 27 28 29 30 31 32 33 34 35 36 37 38 39 40 41 42 43 44 45 46 47 48 49 50

000
ASUS43 KIND 270059
RWRIN

WEATHER ROUNDUP FOR INDIANA
NATIONAL WEATHER SERVICE INDIANAPOLIS IN
900 PM EDT THU MAR 26 2015

NOTE: "FAIR" INDICATES FEW OR NO CLOUDS BELOW 12,000 FEET WITH NO
SIGNIFICANT WEATHER AND/OR OBSTRUCTIONS TO VISIBILITY.

* - STATION DOES NOT REPORT WEATHER SUCH AS PRECIPITATION OR FOG.

+ - STATION NOT QUALITY CONTROLLED BY THE NATIONAL WEATHER SERVICE.
    USE DATA WITH CAUTION...ESPECIALLY DEWPOINT AND RELATIVE
    HUMIDITY OBSERVATIONS.

INZ001>003-010>013-019-020-270200-
NORTHWEST INDIANA

CITY           SKY/WX    TMP DP  RH WIND       PRES   REMARKS
GARY /AIRPORT/ MOCLDY    37  25  60 NE16      30.02R

$$

LMZ046-743>745-270200-
SOUTHERN LAKE MICHIGAN

STATION/POSITION TIME  TEMP WIND        PRES
                       AIR  DIR/SP/G
                 (UTC) (F)  (DEG/KT/KT) (MB)
BURNS HARBOR     0000   35   30/ 12/ 13 1016.6R
MICHIGAN CITY    0000   34  350/ 11/ 14   N/A

$$

INZ004-005-014>016-021>024-270200-
NORTH CENTRAL INDIANA

CITY           SKY/WX    TMP DP  RH WIND       PRES   REMARKS
ELKHART        CLOUDY    34  21  60 NW6       29.99R WCI  29
GOSHEN         CLOUDY    34  23  64 NW12      29.98R WCI  25
SOUTH BEND     CLOUDY    34  24  67 N9        30.00R WCI  27

$$

INZ006>009-017-018-025>027-270200-
NORTHEAST INDIANA

CITY           SKY/WX    TMP DP  RH WIND       PRES   REMARKS
ANGOLA *+      CLOUDY    36  21  55 NW13      29.94S
FORT WAYNE     PTCLDY    35  24  64 N8        29.97R WCI  29

$$

INZ028-029-035-036-043>045-051>053-270200-
WEST CENTRAL INDIANA

CITY           SKY/WX    TMP DP  RH WIND       PRES   REMARKS
GREENCASTLE +  PTCLDY    41  27  56 NW3       29.99R
LAFAYETTE      MOCLDY    39  27  62 NW12      30.00R
TERRE HAUTE    PTCLDY    43  30  60 NW10      30.00S

$$

INZ030>032-037>040-046>048-054>057-064-065-270200-
CENTRAL INDIANA

CITY           SKY/WX    TMP DP  RH WIND       PRES   REMARKS
COLUMBUS       PTCLDY    39  30  70 NW5       29.98R
GREENWOOD *+   PTCLDY    41  28  60 NW7       29.97S
INDIANAPOLIS   PTCLDY    39  29  67 NW8       29.96S
-EAGLE CREEK   CLEAR     40  29  64 NW10      29.96S
KOKOMO *+        N/A     37  27  65 N6        29.97R
MT COMFORT *+  CLOUDY    39  25  56 NW6       29.97R
SHELBYVILLE    PTCLDY    38  29  70 NW6       29.96S

$$

INZ033-034-041-042-049-050-058-059-270200-
EAST CENTRAL INDIANA

CITY           SKY/WX    TMP DP  RH WIND       PRES   REMARKS
MUNCIE         MOCLDY    38  29  70 N9        29.95R

$$

INZ060-061-067>069-081>083-085>088-270200-
SOUTHWEST INDIANA

CITY           SKY/WX    TMP DP  RH WIND       PRES   REMARKS
EVANSVILLE     PTCLDY    43  33  68 NW6       30.02S
HUNTINGBURG *+ PTCLDY    41  32  70 NW5       30.01R

$$

INZ062-063-066-070>080-084-089>092-270200-
SOUTH CENTRAL AND SOUTHEAST INDIANA

CITY           SKY/WX    TMP DP  RH WIND       PRES   REMARKS
BLOOMINGTON    PTCLDY    38  31  76 W3        29.98R
SEYMOUR +      PTCLDY    41  34  75 N6        29.99R

$$




USA.gov is the U.S. government's official web portal to all federal, state and local government web resources and services.